Current weather by "City, St" or "zip code"  
 

Current Conditions: Greenwood, Greenwood-LeFlore Airport, MS

Fair


62.0 F

Last Updated on Sep 18 2020, 12:53 am CDT
Humidity: 90%
Wind Speed: N 0.0 mph
Barometer 29.97 in
Dewpoint: 59.0 F
Visibility: 10.00 mi
Precip: --
Heat Index: NA
Wind Chill: NA
Current conditions at:

Greenwood, Greenwood-LeFlore Airport, MS (KGWO)

Lat: 33.4925 Lon: 90.08361

Local Radar Image active severe weather and emergency alerts image image weather storm and storm spotter reports image weather observation monitoring service image
Local
Radar
Active
Alerts
Storm Reports Obs
Monitoring

Sign-up For Email & Text Message Weather Alert Notification Services



Advertise Here

Observation History for Greenwood, Greenwood-LeFlore Airport, MS


Time Wind
(mph)
Vis
(mi)
Weather Precip (in) Temperature (F) Relative
Humidity
Wind
Chill
(F)
Heat
Index
(F)
Pressure
Air Dwpt altimeter
(in)
sea level
(mb)
Rmks
12:53 am CDT N 0.0 10.00 Fair -- 62.0 59.0 90% NA NA 29.97 1014.5
11:53 pm CDT N 0.0 10.00 Fair -- 64.0 60.1 87% NA NA 29.97 1014.6
10:53 pm CDT N 4.6 10.00 Fair -- 66.0 60.1 81% NA NA 29.95 1013.9
9:53 pm CDT N 5.8 10.00 Fair -- 67.0 61.0 81% NA NA 29.94 1013.6
8:53 pm CDT N 5.8 10.00 Fair -- 74.0 62.1 67% NA NA 29.93 1013.5
7:53 pm CDT N 4.6 10.00 Fair -- 76.0 63.0 64% NA NA 29.92 1012.9
6:53 pm CDT N 9.2 10.00 Fair -- 79.0 64.9 62% NA NA 29.91 1012.6
5:53 pm CDT N 8.1 10.00 Fair -- 83.0 66.0 57% NA 85 29.88 1011.8
4:53 pm CDT N 8.1 10.00 Fair -- 85.0 69.1 59% NA 89 29.87 1011.2
3:53 pm CDT N 9.2 10.00 Fair -- 86.0 69.1 57% NA 90 29.87 1011.2
2:53 pm CDT N 12.7 G 21.9 10.00 A Few Clouds -- 89.0 69.1 52% NA 94 29.88 1011.6
1:53 pm CDT N 9.2 10.00 A Few Clouds -- 87.0 68.0 53% NA 90 29.89 1012.0
12:53 pm CDT N 12.7 G 19.6 10.00 Partly Cloudy -- 87.0 69.1 55% NA 91 29.91 1012.5
11:53 am CDT N 9.2 10.00 Mostly Cloudy -- 85.0 69.1 59% NA 89 29.93 1013.2
10:53 am CDT N 10.4 G 19.6 10.00 Partly Cloudy -- 85.0 71.1 63% NA 90 29.94 1013.5
9:53 am CDT N 10.4 10.00 Fair -- 81.0 71.1 72% NA 85 29.94 1013.6
8:53 am CDT N 5.8 10.00 Fair -- 76.0 70.0 82% NA NA 29.93 1013.2
7:53 am CDT N 5.8 10.00 Mostly Cloudy -- 72.0 69.1 91% NA NA 29.92 1012.8
6:53 am CDT N 4.6 10.00 Mostly Cloudy -- 70.0 68.0 93% NA NA 29.89 1012.1
5:53 am CDT N 0.0 10.00 Mostly Cloudy -- 70.0 68.0 93% NA NA 29.88 1011.8
4:53 am CDT N 3.5 10.00 Mostly Cloudy -- 70.0 68.0 93% NA NA 29.88 1011.6
3:53 am CDT N 6.9 10.00 Mostly Cloudy -- 70.0 68.0 93% NA NA 29.88 1011.6
2:53 am CDT N 6.9 10.00 Fair -- 70.0 68.0 93% NA NA 29.89 1012.0
1:53 am CDT N 5.8 10.00 Fair -- 71.0 69.1 94% NA NA 29.90 1012.4

Regional Weather Observation


Greenville, Mid Delta Regional Airport, MS (KGLH)

Fair
67.0 F

Fletcher Field, Clarksdale, MS (KCKM)

NULL
70.0 F

Tunica, Tunica Municipal Airport, MS (KUTA)

Fair
68.0 F

Oxford, University-Oxford Airport, MS (KUOX)

Fair
66.0 F

Monticello, Monticello Municipal Airport/Ellis Field, AR (KLLQ)

Fair
69.0 F

Olive Branch, Olive Branch Airport, MS (KOLV)

NULL
70.0 F